When you browse on this site, cookies collect data to enhance your experience and personalize the content and advertising you see.
Visit our Privacy Policy to learn more. By continuing to use the site, you agree to this use of cookies and data.

Hourly Weather Belfast

Today, 9 July, Thursday

Time Temperature Precipitation Wind Pressure Humidity
00:00 +11°C° 0 mm 3 mps 757 mmHg 98%
01:00 +11°C° 0.2 mm 3 mps 757 mmHg 97%
02:00 +11°C° 0.2 mm 3 mps 757 mmHg 97%
03:00 +10°C° 0.2 mm 3 mps 756 mmHg 96%
04:00 +11°C° 0 mm 3 mps 757 mmHg 96%
05:00 +11°C° 0 mm 3 mps 757 mmHg 95%
06:00 +11°C° 0 mm 3 mps 758 mmHg 94%
07:00 +12°C° 0 mm 3 mps 758 mmHg 91%
08:00 +13°C° 0 mm 4 mps 758 mmHg 87%
09:00 +14°C° 0 mm 4 mps 759 mmHg 83%
10:00 +15°C° 0.1 mm 4 mps 759 mmHg 80%
11:00 +15°C° 0.1 mm 4 mps 759 mmHg 77%
12:00 +15°C° 0.1 mm 4 mps 759 mmHg 74%
13:00 +15°C° 0.1 mm 5 mps 759 mmHg 72%
14:00 +16°C° 0.1 mm 5 mps 759 mmHg 70%
15:00 +16°C° 0.1 mm 5 mps 760 mmHg 69%
16:00 +15°C° 0 mm 5 mps 760 mmHg 69%
17:00 +15°C° 0 mm 5 mps 759 mmHg 70%
18:00 +14°C° 0 mm 5 mps 759 mmHg 71%
19:00 +13°C° 0 mm 5 mps 760 mmHg 76%
20:00 +10°C° 0 mm 5 mps 760 mmHg 81%
21:00 +10°C° 0 mm 4 mps 761 mmHg 87%
22:00 +8°C° 0 mm 4 mps 761 mmHg 88%
23:00 +8°C° 0 mm 4 mps 761 mmHg 89%

Tomorrow, 10 July, Friday

Time Temperature Precipitation Wind Pressure Humidity
00:00 +7°C° 0 mm 4 mps 761 mmHg 91%
01:00 +7°C° 0 mm 4 mps 761 mmHg 91%
02:00 +7°C° 0 mm 4 mps 761 mmHg 92%
03:00 +7°C° 0 mm 4 mps 761 mmHg 92%
04:00 +7°C° 0 mm 5 mps 761 mmHg 91%
05:00 +8°C° 0 mm 5 mps 761 mmHg 90%
06:00 +9°C° 0 mm 5 mps 762 mmHg 89%
07:00 +10°C° 0.1 mm 5 mps 762 mmHg 86%
08:00 +12°C° 0.1 mm 5 mps 762 mmHg 83%
09:00 +13°C° 0.1 mm 5 mps 762 mmHg 80%
10:00 +14°C° 0.2 mm 5 mps 763 mmHg 79%
11:00 +14°C° 0.2 mm 5 mps 763 mmHg 78%
12:00 +15°C° 0.2 mm 5 mps 763 mmHg 77%
13:00 +15°C° 0.4 mm 5 mps 763 mmHg 77%
14:00 +15°C° 0.4 mm 5 mps 763 mmHg 77%
15:00 +15°C° 0.4 mm 6 mps 763 mmHg 77%
16:00 +15°C° 0.1 mm 6 mps 764 mmHg 77%
17:00 +15°C° 0.1 mm 6 mps 764 mmHg 77%
18:00 +14°C° 0.1 mm 6 mps 764 mmHg 77%
19:00 +13°C° 0 mm 5 mps 765 mmHg 81%
20:00 +11°C° 0 mm 4 mps 765 mmHg 85%
21:00 +10°C° 0 mm 4 mps 766 mmHg 90%
22:00 +8°C° 0 mm 4 mps 766 mmHg 91%
23:00 +8°C° 0 mm 4 mps 766 mmHg 93%

Day after tomorrow, 11 July, Saturday

Time Temperature Precipitation Wind Pressure Humidity
00:00 +8°C° 0 mm 3 mps 766 mmHg 94%
01:00 +8°C° 0 mm 3 mps 766 mmHg 95%
02:00 +7°C° 0 mm 3 mps 767 mmHg 95%
03:00 +7°C° 0 mm 3 mps 767 mmHg 96%
04:00 +8°C° 0 mm 3 mps 767 mmHg 96%
05:00 +9°C° 0 mm 3 mps 767 mmHg 95%
06:00 +9°C° 0 mm 3 mps 767 mmHg 95%
07:00 +11°C° 0 mm 3 mps 767 mmHg 89%
08:00 +13°C° 0 mm 3 mps 768 mmHg 83%
09:00 +14°C° 0 mm 3 mps 768 mmHg 78%
10:00 +16°C° 0.1 mm 3 mps 768 mmHg 75%
11:00 +17°C° 0.1 mm 2 mps 768 mmHg 72%
12:00 +17°C° 0.1 mm 2 mps 768 mmHg 69%
13:00 +17°C° 0.1 mm 2 mps 768 mmHg 70%
14:00 +17°C° 0.1 mm 2 mps 768 mmHg 72%
15:00 +17°C° 0.1 mm 2 mps 769 mmHg 73%
16:00 +17°C° 0.1 mm 2 mps 768 mmHg 74%
17:00 +17°C° 0.1 mm 2 mps 768 mmHg 76%
18:00 +17°C° 0.1 mm 2 mps 768 mmHg 77%
19:00 +15°C° 0 mm 2 mps 768 mmHg 83%
20:00 +13°C° 0 mm 2 mps 769 mmHg 88%
21:00 +12°C° 0 mm 2 mps 769 mmHg 93%
22:00 +11°C° 0 mm 1 mps 769 mmHg 93%
23:00 +11°C° 0 mm 1 mps 768 mmHg 94%

12 July, Sunday

Time Temperature Precipitation Wind Pressure Humidity
00:00 +10°C° 0 mm 1 mps 768 mmHg 94%
01:00 +10°C° 0 mm 1 mps 768 mmHg 94%
02:00 +10°C° 0 mm 1 mps 768 mmHg 93%
03:00 +10°C° 0 mm 1 mps 768 mmHg 93%
04:00 +11°C° 0 mm 1 mps 768 mmHg 92%
05:00 +12°C° 0 mm 2 mps 768 mmHg 92%
06:00 +13°C° 0 mm 2 mps 767 mmHg 91%
07:00 +13°C° 0 mm 2 mps 768 mmHg 88%
08:00 +13°C° 0 mm 3 mps 768 mmHg 85%
09:00 +14°C° 0 mm 3 mps 768 mmHg 82%
10:00 +14°C° 0 mm 3 mps 768 mmHg 82%
11:00 +14°C° 0 mm 4 mps 768 mmHg 82%
12:00 +14°C° 0 mm 4 mps 768 mmHg 82%
13:00 +13°C° 0.1 mm 4 mps 768 mmHg 85%
14:00 +13°C° 0.1 mm 4 mps 768 mmHg 88%
15:00 +13°C° 0.1 mm 4 mps 768 mmHg 91%
16:00 +13°C° 0.3 mm 4 mps 768 mmHg 93%
17:00 +13°C° 0.3 mm 3 mps 768 mmHg 94%
18:00 +12°C° 0.3 mm 3 mps 767 mmHg 96%
19:00 +12°C° 0.2 mm 3 mps 767 mmHg 96%
20:00 +12°C° 0.2 mm 3 mps 767 mmHg 96%
21:00 +12°C° 0.2 mm 3 mps 767 mmHg 96%
22:00 +12°C° 0 mm 3 mps 767 mmHg 96%
23:00 +12°C° 0 mm 3 mps 767 mmHg 95%

13 July, Monday

Time Temperature Precipitation Wind Pressure Humidity
00:00 +11°C° 0 mm 3 mps 766 mmHg 94%
01:00 +12°C° 0 mm 3 mps 766 mmHg 95%
02:00 +12°C° 0 mm 3 mps 766 mmHg 95%
03:00 +12°C° 0 mm 3 mps 765 mmHg 95%
04:00 +12°C° 0 mm 3 mps 765 mmHg 95%
05:00 +12°C° 0 mm 3 mps 765 mmHg 94%
06:00 +13°C° 0 mm 3 mps 765 mmHg 94%
07:00 +12°C° 0.4 mm 4 mps 765 mmHg 95%
08:00 +12°C° 0.4 mm 4 mps 765 mmHg 95%
09:00 +12°C° 0.4 mm 4 mps 765 mmHg 96%
10:00 +12°C° 0.3 mm 4 mps 764 mmHg 95%
11:00 +13°C° 0.3 mm 4 mps 764 mmHg 95%
12:00 +13°C° 0.3 mm 4 mps 764 mmHg 95%
13:00 +13°C° 0.3 mm 4 mps 764 mmHg 94%
14:00 +14°C° 0.3 mm 4 mps 764 mmHg 93%
15:00 +14°C° 0.3 mm 4 mps 764 mmHg 92%
16:00 +14°C° 0.2 mm 4 mps 764 mmHg 93%
17:00 +14°C° 0.2 mm 3 mps 764 mmHg 94%
18:00 +14°C° 0.2 mm 3 mps 763 mmHg 95%
19:00 +13°C° 0.3 mm 3 mps 763 mmHg 95%
20:00 +13°C° 0.3 mm 3 mps 764 mmHg 95%
21:00 +12°C° 0.3 mm 3 mps 764 mmHg 95%
22:00 +11°C° 0 mm 3 mps 764 mmHg 95%
23:00 +10°C° 0 mm 3 mps 764 mmHg 95%

14 July, Tuesday

Time Temperature Precipitation Wind Pressure Humidity
00:00 +9°C° 0 mm 3 mps 764 mmHg 95%
01:00 +10°C° 0 mm 3 mps 764 mmHg 95%
02:00 +10°C° 0 mm 3 mps 763 mmHg 94%
03:00 +10°C° 0 mm 3 mps 763 mmHg 94%
04:00 +10°C° 0 mm 3 mps 763 mmHg 93%
05:00 +10°C° 0 mm 3 mps 764 mmHg 91%
06:00 +11°C° 0 mm 3 mps 764 mmHg 90%
07:00 +12°C° 0 mm 3 mps 764 mmHg 86%
08:00 +13°C° 0 mm 3 mps 764 mmHg 81%
09:00 +13°C° 0 mm 4 mps 764 mmHg 76%
10:00 +14°C° 0 mm 3 mps 764 mmHg 74%
11:00 +16°C° 0 mm 3 mps 763 mmHg 73%
12:00 +16°C° 0 mm 2 mps 763 mmHg 71%
13:00 +17°C° 0 mm 2 mps 763 mmHg 72%
14:00 +17°C° 0 mm 2 mps 763 mmHg 74%
15:00 +17°C° 0 mm 3 mps 763 mmHg 75%
16:00 +16°C° 0 mm 3 mps 763 mmHg 79%
17:00 +16°C° 0 mm 3 mps 762 mmHg 82%
18:00 +14°C° 0 mm 3 mps 762 mmHg 86%
19:00 +14°C° 0 mm 3 mps 762 mmHg 88%
20:00 +13°C° 0 mm 3 mps 762 mmHg 91%
21:00 +13°C° 0 mm 3 mps 762 mmHg 93%
22:00 +13°C° 0 mm 3 mps 762 mmHg 93%
23:00 +13°C° 0 mm 4 mps 762 mmHg 93%
Show more